Weather History for KFFO - June, 2014

Change the Weather History Date:

Sunday, June 29, 2014

  Actual Average Record
Temperature  
Mean Temperature 76 °F -  
Max Temperature 84 °F 81 °F 100 °F (2012)
Min Temperature 70 °F 60 °F 53 °F (2004)
Cooling Degree Days 12    
Growing Degree Days 26 (Base 50)    
Moisture  
Dew Point 71 °F    
Average Humidity 81    
Maximum Humidity 97    
Minimum Humidity 64    
Precipitation  
Precipitation 0.00 in - - ()
Sea Level Pressure  
Sea Level Pressure 30.07 in    
Wind  
Wind Speed 9 mph (South)    
Max Wind Speed 21 mph    
Max Gust Speed -    
Visibility 10 miles    
Events Rain , Thunderstorm    
Averages and records for this station are not official NWS values.
T = Trace of Precipitation, MM = Missing Value Source: NWS Daily Summary

Daily Weather History Graph

Daily Weather History Graph

Search for Another Location

Airport or City:

Trip Planner

Search our weather history database for the weather conditions in past years. The results will help you decide how hot, cold, wet, or windy it might be!

Date:

Astronomy

Jun. 29, 2014 Rise Set
Actual Time 6:10 AM EDT 9:08 PM EDT
Civil Twilight 5:38 AM EDT 9:41 PM EDT
Nautical Twilight 4:56 AM EDT 10:22 PM EDT
Astronomical Twilight 4:08 AM EDT 11:10 PM EDT
Moon 8:27 AM EDT (6/29) 10:28 PM EDT (6/29)
Length of Visible Light 16h 03m
Length of Day
14h 57m
Waxing Crescent, 5% of the Moon is Illuminated
Jun 29
Waxing Crescent
Jul 5
First Quarter
Jul 12
Full
Jul 18
Last Quarter
Jul 26
New

Hourly Weather History & Observations

Time (EDT) Temp. Heat Index Dew Point Humidity Pressure Visibility Wind Dir Wind Speed Gust Speed Precip Events Conditions
12:58 AM 72.9 °F - 71.1 °F 94% 30.10 in 10.0 mi SSE 10.4 mph - N/A   Clear
1:58 AM 71.8 °F - 70.2 °F 95% 30.12 in 10.0 mi South 6.9 mph - N/A   Clear
2:58 AM 71.8 °F - 70.2 °F 95% 30.11 in 10.0 mi SSE 5.8 mph - N/A   Clear
3:58 AM 71.1 °F - 69.8 °F 96% 30.09 in 10.0 mi SSE 5.8 mph - N/A   Clear
4:58 AM 70.9 °F - 69.6 °F 96% 30.09 in 10.0 mi SSE 5.8 mph - N/A   Clear
5:58 AM 70.3 °F - 69.4 °F 97% 30.09 in 10.0 mi SSE 5.8 mph - N/A   Clear
6:58 AM 71.2 °F - 70.0 °F 96% 30.09 in 10.0 mi SSE 5.8 mph - N/A   Clear
7:58 AM 72.9 °F - 70.5 °F 92% 30.09 in 10.0 mi SSE 8.1 mph - N/A   Partly Cloudy
8:58 AM 74.8 °F - 70.9 °F 87% 30.11 in 10.0 mi South 8.1 mph - N/A   Clear
9:58 AM 78.3 °F - 71.6 °F 80% 30.09 in 10.0 mi South 10.4 mph - N/A   Partly Cloudy
10:11 AM 78.8 °F - 71.6 °F 78% 30.09 in 10.0 mi South 10.4 mph - N/A   Mostly Cloudy
10:58 AM 78.6 °F - 70.9 °F 77% 30.09 in 10.0 mi SSW 16.1 mph - N/A   Mostly Cloudy
11:58 AM 78.6 °F - 70.0 °F 75% 30.09 in 10.0 mi SSW 12.7 mph - N/A   Overcast
12:28 PM 77.0 °F - 69.8 °F 78% 30.09 in 10.0 mi SSW 12.7 mph - N/A   Mostly Cloudy
12:58 PM 81.0 °F 84.2 °F 69.6 °F 68% 30.09 in 10.0 mi SW 13.8 mph - N/A   Mostly Cloudy
1:58 PM 83.3 °F 87.4 °F 70.2 °F 64% 30.08 in 10.0 mi SW 15.0 mph - N/A   Mostly Cloudy
2:58 PM 82.2 °F 86.9 °F 71.4 °F 70% 30.07 in 10.0 mi SW 12.7 mph - N/A   Mostly Cloudy
3:15 PM 82.4 °F 87.2 °F 71.6 °F 70% 30.06 in 6.0 mi SW 20.7 mph - N/A Rain Light Rain
3:28 PM 77.0 °F - 73.4 °F 89% 30.06 in 10.0 mi SW 11.5 mph - N/A   Mostly Cloudy
3:58 PM 81.1 °F 85.8 °F 72.5 °F 75% 30.05 in 10.0 mi SW 10.4 mph - 0.00 in   Mostly Cloudy
4:58 PM 83.1 °F 87.6 °F 70.9 °F 66% 30.03 in 10.0 mi SW 13.8 mph - N/A   Mostly Cloudy
5:58 PM 82.2 °F 86.6 °F 71.2 °F 69% 30.02 in 10.0 mi WSW 5.8 mph - N/A   Mostly Cloudy
6:58 PM 81.7 °F 86.3 °F 71.8 °F 72% 30.02 in 10.0 mi West 5.8 mph - N/A   Mostly Cloudy
7:58 PM 81.5 °F 85.7 °F 71.4 °F 71% 30.02 in 10.0 mi South 3.5 mph - N/A   Mostly Cloudy
8:11 PM 80.6 °F 84.6 °F 71.6 °F 74% 30.02 in 10.0 mi SSE 8.1 mph - N/A Thunderstorm Mostly Cloudy
8:40 PM 80.6 °F 84.6 °F 71.6 °F 74% 30.02 in 10.0 mi South 8.1 mph - N/A   Mostly Cloudy
8:58 PM 80.4 °F 84.1 °F 70.9 °F 73% 30.01 in 10.0 mi SSE 6.9 mph - N/A   Mostly Cloudy
9:58 PM 78.1 °F - 71.4 °F 80% 30.03 in 10.0 mi SSW 8.1 mph - N/A   Mostly Cloudy
10:58 PM 76.3 °F - 70.5 °F 82% 30.03 in 10.0 mi South 6.9 mph - N/A   Clear
11:58 PM 75.0 °F - 70.0 °F 84% 30.02 in 10.0 mi South 6.9 mph - N/A   Clear